Terug naar catalogus

STARLINK-32371

ActiefCommunicatieVLEO
NORAD 60916·PAYLOAD·🇺🇸 United States

Gelanceerd Aug 31, 2024 vanaf Cape Canaveral Space Force Station

Loading…

Volgende Passages (komende 24 uur)

TLE

VersSource: CelesTrak SupGP

Epoch: Sep 14, 2026, 21:28 UTC

1 60916C 24154P   26257.89493056 -.00042620  00000+0 -13706-2 0  2575
2 60916  53.1562 123.8232 0001274  85.9773 136.0831 15.31721353    14

Volg STARLINK-32371 in realtime met AllMySat

Download on the App Store